When you browse on this site, cookies collect data to enhance your experience and personalize the content and advertising you see.
Visit our Privacy Policy to learn more. By continuing to use the site, you agree to this use of cookies and data.
  • In Switzerland
  • List of Countries
  • For 7 days
  • Water Temperature
  • Weather Map
  • Weather Widgets
  • user-avatar
    Login

    Hourly Weather Armawir

    Today, 5 April, Sunday

    Time Temperature Precipitation Wind Pressure Humidity
    00:00 +9°C° 0 mm 1 mps 691 mmHg 63%
    01:00 +9°C° 0 mm 1 mps 691 mmHg 63%
    02:00 +9°C° 0 mm 1 mps 691 mmHg 63%
    03:00 +7°C° 0 mm 0 mps 690 mmHg 64%
    04:00 +8°C° 0 mm 1 mps 691 mmHg 64%
    05:00 +8°C° 0 mm 1 mps 691 mmHg 64%
    06:00 +7°C° 0 mm 1 mps 691 mmHg 65%
    07:00 +9°C° 0 mm 1 mps 691 mmHg 59%
    08:00 +11°C° 0 mm 1 mps 691 mmHg 53%
    09:00 +13°C° 0 mm 1 mps 691 mmHg 47%
    10:00 +14°C° 0 mm 1 mps 691 mmHg 44%
    11:00 +15°C° 0 mm 2 mps 691 mmHg 41%
    12:00 +16°C° 0 mm 2 mps 691 mmHg 38%
    13:00 +17°C° 0 mm 2 mps 690 mmHg 36%
    14:00 +18°C° 0 mm 2 mps 690 mmHg 34%
    15:00 +18°C° 0 mm 2 mps 689 mmHg 32%
    16:00 +18°C° 0 mm 2 mps 689 mmHg 34%
    17:00 +18°C° 0 mm 2 mps 689 mmHg 36%
    18:00 +17°C° 0 mm 2 mps 689 mmHg 38%
    19:00 +18°C° 0 mm 1 mps 689 mmHg 40%
    20:00 +16°C° 0 mm 1 mps 689 mmHg 41%
    21:00 +15°C° 0 mm 1 mps 689 mmHg 43%
    22:00 +15°C° 0 mm 1 mps 689 mmHg 45%
    23:00 +15°C° 0 mm 1 mps 689 mmHg 48%

    Tomorrow, 6 April, Monday

    Time Temperature Precipitation Wind Pressure Humidity
    00:00 +15°C° 0 mm 1 mps 689 mmHg 50%
    01:00 +14°C° 0.1 mm 1 mps 688 mmHg 54%
    02:00 +14°C° 0.1 mm 1 mps 688 mmHg 57%
    03:00 +14°C° 0.1 mm 1 mps 688 mmHg 61%
    04:00 +13°C° 0.1 mm 1 mps 688 mmHg 62%
    05:00 +13°C° 0.1 mm 1 mps 688 mmHg 64%
    06:00 +13°C° 0.1 mm 1 mps 688 mmHg 65%
    07:00 +14°C° 0 mm 1 mps 688 mmHg 61%
    08:00 +15°C° 0 mm 1 mps 688 mmHg 57%
    09:00 +16°C° 0 mm 1 mps 689 mmHg 53%
    10:00 +16°C° 0.3 mm 2 mps 689 mmHg 55%
    11:00 +16°C° 0.3 mm 2 mps 689 mmHg 58%
    12:00 +16°C° 0.3 mm 3 mps 689 mmHg 60%
    13:00 +15°C° 0.5 mm 2 mps 689 mmHg 63%
    14:00 +15°C° 0.5 mm 2 mps 688 mmHg 65%
    15:00 +15°C° 0.5 mm 2 mps 688 mmHg 67%
    16:00 +15°C° 0.3 mm 2 mps 688 mmHg 70%
    17:00 +15°C° 0.3 mm 2 mps 688 mmHg 72%
    18:00 +13°C° 0.3 mm 3 mps 688 mmHg 75%
    19:00 +13°C° 0.3 mm 3 mps 688 mmHg 77%
    20:00 +13°C° 0.3 mm 2 mps 688 mmHg 80%
    21:00 +13°C° 0.3 mm 2 mps 688 mmHg 83%
    22:00 +12°C° 0.6 mm 2 mps 688 mmHg 86%
    23:00 +12°C° 0.6 mm 2 mps 688 mmHg 88%

    Day after tomorrow, 7 April, Tuesday

    Time Temperature Precipitation Wind Pressure Humidity
    00:00 +12°C° 0.6 mm 2 mps 687 mmHg 90%
    01:00 +12°C° 0.5 mm 2 mps 687 mmHg 87%
    02:00 +12°C° 0.5 mm 2 mps 687 mmHg 85%
    03:00 +10°C° 0.5 mm 2 mps 687 mmHg 82%
    04:00 +10°C° 0.5 mm 2 mps 687 mmHg 82%
    05:00 +11°C° 0.5 mm 1 mps 687 mmHg 82%
    06:00 +11°C° 0.5 mm 1 mps 687 mmHg 82%
    07:00 +11°C° 0.3 mm 1 mps 687 mmHg 80%
    08:00 +11°C° 0.3 mm 1 mps 687 mmHg 79%
    09:00 +11°C° 0.3 mm 1 mps 687 mmHg 78%
    10:00 +12°C° 0.1 mm 1 mps 687 mmHg 73%
    11:00 +12°C° 0.1 mm 1 mps 687 mmHg 69%
    12:00 +12°C° 0.1 mm 1 mps 687 mmHg 64%
    13:00 +13°C° 0 mm 2 mps 687 mmHg 62%
    14:00 +13°C° 0 mm 2 mps 687 mmHg 60%
    15:00 +13°C° 0 mm 2 mps 687 mmHg 59%
    16:00 +13°C° 0 mm 2 mps 687 mmHg 58%
    17:00 +13°C° 0 mm 2 mps 687 mmHg 58%
    18:00 +12°C° 0 mm 2 mps 687 mmHg 58%
    19:00 +10°C° 0 mm 2 mps 688 mmHg 59%
    20:00 +9°C° 0 mm 2 mps 688 mmHg 61%
    21:00 +8°C° 0 mm 2 mps 688 mmHg 62%
    22:00 +8°C° 0 mm 2 mps 688 mmHg 63%
    23:00 +7°C° 0 mm 2 mps 688 mmHg 63%

    8 April, Wednesday

    Time Temperature Precipitation Wind Pressure Humidity
    00:00 +6°C° 0 mm 2 mps 689 mmHg 64%
    01:00 +6°C° 0 mm 2 mps 689 mmHg 64%
    02:00 +5°C° 0 mm 2 mps 689 mmHg 63%
    03:00 +5°C° 0 mm 2 mps 689 mmHg 63%
    04:00 +5°C° 0 mm 2 mps 689 mmHg 63%
    05:00 +4°C° 0 mm 2 mps 690 mmHg 63%
    06:00 +4°C° 0 mm 2 mps 690 mmHg 62%
    07:00 +5°C° 0 mm 2 mps 690 mmHg 57%
    08:00 +7°C° 0 mm 2 mps 690 mmHg 53%
    09:00 +8°C° 0 mm 2 mps 691 mmHg 48%
    10:00 +9°C° 0 mm 2 mps 690 mmHg 46%
    11:00 +10°C° 0 mm 2 mps 690 mmHg 45%
    12:00 +12°C° 0 mm 2 mps 690 mmHg 44%
    13:00 +12°C° 0 mm 3 mps 689 mmHg 43%
    14:00 +13°C° 0 mm 3 mps 689 mmHg 43%
    15:00 +13°C° 0 mm 4 mps 688 mmHg 42%
    16:00 +13°C° 0 mm 4 mps 688 mmHg 45%
    17:00 +12°C° 0 mm 4 mps 688 mmHg 47%
    18:00 +12°C° 0 mm 4 mps 688 mmHg 49%
    19:00 +11°C° 0 mm 3 mps 688 mmHg 51%
    20:00 +10°C° 0 mm 3 mps 688 mmHg 53%
    21:00 +9°C° 0 mm 2 mps 688 mmHg 56%
    22:00 +8°C° 0 mm 2 mps 688 mmHg 57%
    23:00 +8°C° 0 mm 2 mps 688 mmHg 59%

    9 April, Thursday

    Time Temperature Precipitation Wind Pressure Humidity
    00:00 +7°C° 0 mm 2 mps 688 mmHg 60%
    01:00 +7°C° 0 mm 2 mps 687 mmHg 62%
    02:00 +7°C° 0 mm 1 mps 687 mmHg 64%
    03:00 +7°C° 0 mm 1 mps 686 mmHg 65%
    04:00 +7°C° 0 mm 1 mps 686 mmHg 67%
    05:00 +6°C° 0 mm 1 mps 686 mmHg 68%
    06:00 +6°C° 0 mm 1 mps 686 mmHg 70%
    07:00 +7°C° 0 mm 1 mps 685 mmHg 65%
    08:00 +8°C° 0 mm 1 mps 685 mmHg 61%
    09:00 +10°C° 0 mm 1 mps 685 mmHg 56%
    10:00 +10°C° 0 mm 2 mps 684 mmHg 53%
    11:00 +12°C° 0 mm 2 mps 684 mmHg 50%
    12:00 +13°C° 0 mm 2 mps 684 mmHg 47%
    13:00 +14°C° 0 mm 2 mps 683 mmHg 46%
    14:00 +15°C° 0 mm 2 mps 683 mmHg 44%
    15:00 +14°C° 0 mm 3 mps 682 mmHg 43%
    16:00 +15°C° 0 mm 2 mps 682 mmHg 44%
    17:00 +15°C° 0 mm 2 mps 682 mmHg 46%
    18:00 +15°C° 0 mm 2 mps 682 mmHg 48%
    19:00 +14°C° 0 mm 2 mps 683 mmHg 51%
    20:00 +13°C° 0 mm 1 mps 683 mmHg 55%
    21:00 +12°C° 0 mm 1 mps 683 mmHg 58%
    22:00 +12°C° 0 mm 1 mps 683 mmHg 61%
    23:00 +11°C° 0 mm 1 mps 683 mmHg 63%

    10 April, Friday

    Time Temperature Precipitation Wind Pressure Humidity
    00:00 +11°C° 0 mm 1 mps 682 mmHg 66%
    01:00 +10°C° 0 mm 1 mps 682 mmHg 68%
    02:00 +9°C° 0 mm 1 mps 681 mmHg 70%
    03:00 +8°C° 0 mm 2 mps 681 mmHg 72%
    04:00 +9°C° 0 mm 1 mps 681 mmHg 72%
    05:00 +9°C° 0 mm 1 mps 681 mmHg 72%
    06:00 +9°C° 0 mm 1 mps 681 mmHg 71%
    07:00 +10°C° 0 mm 1 mps 681 mmHg 66%
    08:00 +11°C° 0 mm 1 mps 681 mmHg 61%
    09:00 +12°C° 0 mm 1 mps 681 mmHg 56%
    10:00 +14°C° 0 mm 1 mps 681 mmHg 53%
    11:00 +15°C° 0 mm 1 mps 681 mmHg 51%
    12:00 +16°C° 0 mm 1 mps 681 mmHg 48%
    13:00 +16°C° 0.2 mm 1 mps 680 mmHg 46%
    14:00 +18°C° 0.2 mm 1 mps 680 mmHg 43%
    15:00 +18°C° 0.2 mm 1 mps 680 mmHg 41%
    16:00 +18°C° 0.3 mm 1 mps 680 mmHg 43%
    17:00 +17°C° 0.3 mm 2 mps 680 mmHg 45%
    18:00 +16°C° 0.3 mm 2 mps 680 mmHg 46%
    19:00 +14°C° 0.4 mm 3 mps 680 mmHg 50%
    20:00 +13°C° 0.4 mm 3 mps 681 mmHg 54%
    21:00 +12°C° 0.4 mm 3 mps 681 mmHg 58%
    22:00 +11°C° 0.3 mm 3 mps 681 mmHg 61%
    23:00 +10°C° 0.3 mm 3 mps 681 mmHg 64%
    Show more